Zurück zum Katalog

ION SCV-015

AktivWissenschaftSSO
NORAD 58469·PAYLOAD·🇮🇹 Italy

Gestartet Dec 1, 2023 von Vandenberg Space Force Base

Loading…

Nächste Überflüge (nächste 24 Stunden)

TLE

AktuellSource: Space-Track

Epoche: Sep 14, 2026, 14:13 UTC

1 58469U 23185H   26257.59263181  .00005797  00000-0  17838-3 0  9996
2 58469  97.5744 348.5539 0010078 136.1728 224.0316 15.34023862154788

Verfolge ION SCV-015 in Echtzeit mit AllMySat

Download on the App Store